Погода в Нальчике

Погода в Нальчике : погода сейчас, прогноз погоды и архив. Всё, что Вы хотите узнать о погоде в Нальчике!

Поиск расширенной информации на нашем сайте:

Другие новости

Новости СМИ2

Главная страница сайта

Новости сайта

03.07.2017

Напоминаем, что на нашем специализированном сайте Метеоцентр.Азия вы можете получить высокодетализированные автоматические прогнозы погоды по пунктам России, СНГ и мира в авиационном формате (включающие направление и скорость ветра, видимость, явления погоды, количество и форму облачности, нижнюю и верхнюю границу облачности).


Погода в Нальчике - сегодня

Время (UTC), дата Ветер
(°,м/с) 
Видим.   Явления Облачность Т
(°С)
Тd
(°С)
f(%) Тe
(°С)
Pmin
(гПа)
dP
(гПа)
Po
(мм)
O2
(г/м3)
Тmin Tmax R s Состояние
почвы
12 20.10.17 040 (СВ) 10 км    ясно 
+20 +7.2 43 +20  1017.1  -0.6  726  271           
15 20.10.17 190 (Ю) 10 км    3/0 верхняя 
[Ci fib]
+15.1 +8.3 64 +16  1018.7  0.7  727  276    +21.3       
18 20.10.17 250 (З) 10 км    ясно 
+11.5 +6.9 73 +12  1019.9  0.5  727  280           
21 20.10.17 250 (З) 10 км    ясно 
+9.8 +5.9 77 +10  1019.6  -0.6  727  282           
00 21.10.17 220 (ЮЗ) 10 км    ясно 
+10.1 +5.8 75 +10  1018.5  -1  726  281           
03 21.10.17 230 (ЮЗ) 10 км    ясно 
+9.1 +4.7 74 +9  1017.7  -0.9  725  282  +9.1         
06 21.10.17 350 (С) 20000 м    ясно 
+12.7 +6.1 64 +14  1017.5  0.4  726  278  +8.9         
09 21.10.17 030 (СВ) 20000 м    ясно 
+17.7 +7.5 51 +19  1015.5  -1.1  725  273           
12 21.10.17 060 (СВ) 10 км    6/0 верхняя 
[Ci fib]
+18 +8.3 53 +19  1014.5  -0.9  724  272           
15 21.10.17 120 (ЮВ) 10 км    3/0 верхняя 
[Ci fib]
+12.8 +9 78 +15  1015.9  0.5  725  277    +18.8       
18 21.10.17 240 (ЮЗ) 4000 м  мгла  ясно 
+9.4 +7.1 86 +10  1016.2  -0.4  724  281           
21 21.10.17 270 (З) 10 км    ясно 
+7.4 +6.2 92 +7  1015.5  -1  723  283           
00 22.10.17 220 (ЮЗ) 10 км    ясно 
+8.1 +6.4 89 +8  1014.2  -1.1  723  282           
03 22.10.17 240 (ЮЗ) 10 км    ясно 
+6.4 +4.6 88 +7  1014.1  -0.4  722  284  +5.1         
06 22.10.17 090 (В) 4000 м  дымка  8/0 верхняя 
[Ci fib]
+11.8 +8.3 79 +13  1012.5  -0.6  722  277           
09 22.10.17 080 (В) 10 км    8/0 верхняя 
[Ci fib]
+16.2 +8.6 61 +17  1010.3  -1.3  721  273           
12 22.10.17 050 (СВ) 10 км    10/5 800 м средняя 
[Sc|Ac trans]
+15.4 +9.4 67 +17  1009.9  -0.5  721  273           
15 22.10.17 100 (В) 10 км    10/4 600 м кучево-дожд., средняя 
[Cb cap|Ac cuf]
+13.1 +9.7 80 +16  1010.7  0.4  721  275    +16.9       
18 22.10.17 270 (З) 10 км    10/4 600 м кучево-дожд., средняя 
[Cb cap|Ac cuf]
+11.5 +9.4 87 +13  1011  721  277           
21 22.10.17 340 (С) 10 км    10/6 660 м кучево-дожд., средняя 
[Cb cap|Ac trans]
+11.5 +8.8 83 +12  1013.1  722  278           
00 23.10.17 150 (ЮВ) 10 км  слаб. ливневой дождь  10/10 930 м кучево-дожд. 
[Cb cap]
+10.7 +9.4 92 +12  1014.5  1.2  723  279           
03 23.10.17 010 (С) 10 км  слаб. ливневой дождь  10/10 480 м кучево-дожд. 
[Cb cap]
+10.1 +9.2 94 +12  1016.9  2.2  725  280  +10       
06 23.10.17 020 (С) 1000 м  слаб. ливневой дождь{туман}  10/10 100 м кучево-дожд. 
[Cb cap]
+7.7 +7.2 97 +9  1020.5  2.9  727  284  +7.7         
09 23.10.17 060 (СВ) 2000 м  слаб. ливневой дождь  10/10 120 м кучево-дожд. 
[Cb cap]
+7.5 +6.9 96 +7  1020.7  0.2  727  284           
12 23.10.17 070 (В) 0200 м  туман{ливн. осадки}  ?/?  
+6.3 +5.7 96 +6  1021.6  0.6  728  286           
Время (UTC), дата Ветер
(°,м/с) 
Видим.   Явления Облачность Т
(°С)
Тd
(°С)
f(%) Тe
(°С)
Pmin
(гПа)
dP
(гПа)
Po
(мм)
O2
(г/м3)
Тmin Tmax R s Состояние
почвы

Для получения пояснительной информации подведите курсор к названию столбца.

ПОГОДА в Нальчике - архив

Всё, что Вы хотите узнать о погоде в Нальчике - удобно и подробно!

Выберите нужную дату (начиная с 1 января 2015* года) и нажмите кнопку "Найти".
Будут отображены архивные сводки погоды по пункту Нальчик, начиная с указанной даты.


Отображать данные в формате CSV (для использования в таблицах Excel)


Внимание! Наш архив погоды предназначен исключительно для личного некоммерческого использования в познавательных целях. Если Вам необходимы официальные справки о состоянии погоды (для производственных, юридических, коммерческих и т.п. целей), обращайтесь в органы Росгидромета.

*Примечание: данная дата относится к архиву по метеостанциям СССР (Россия, СНГ, Балтия).
Архив по метеостанциям Зарубежной Европы и Азии (кроме Китая) хранится 10 дней, по другим регионам земного шара (Китай, Африка, Америка, Австралия, Океания) - 1 день.

Нальчик - район местоположения метеостанции


Название, широта, долгота, высота метеостанции:
Нальчик 43.5°ш. 43.7°д. 432 м над ур. моря [Российская Федерация]

Дополнительная информация

В oтличие oт бoльшинства пoгoдных сайтoв мы публикуем пoдрoбную метеoинфoрмацию в детальнoм прoфессиoнальнoм фoрмате.

Характеристики температуры и влажнoсти вoздуха измеряются на высoте 2 м в тени вдали oт зданий и деревьев.
Скoрoсть ветра измеряется на высoте 10 м (на урoвне рoста челoвека скoрoсть ветра ниже в 1.5-2 раза). Если метеoстанция нахoдится в гoрoде или в лесу, тo скoрoсть ветра занижена на 2-4 м/с пo сравнению с oткрытым местoм. Скoрoсть ветра над акватoриями крупных рек и oзёр, а также на вершинах хoлмoв на 2-5 м/с выше, чем в oбычных услoвиях.
Атмoсфернoе давление в разных тoчках местнoсти мoжет значительнo oтличаться oт давления на метеoстанции, в зависимoсти oт услoвий рельефа (при пoдъёме на 10 м давление пoнижается примернo на 1 мм рт.ст.).